SL-16 DEB, 22806

Orbit data source: Space-Track

SL-16 DEB, 22806 is space debris in LEO originally from a launch on Thu, 16 Sep 1993 UTC launched from the Tyuratam Missile And Space Complex (TTMTR). Debris objects in space refer to the collection of defunct objects orbiting the Earth. Examples of debris include non-operational satellites, rocket bodies, and fragments generated from explosions, collisions, or faulty payload assembly.

Loading next visibility...
Identifier
22806, 1993-059E
Orbit
LEO
Country
Flag of CISCIS
Related business
Manufacturer
Yuzhnoe
Mission
Spacecraft
Bus & Motor
SEP MOTOR COVER, Unknown motor
Mass
~0 kg wet, ~1 kg dry
Launch date (UTC)
1993-09-16 (33 years ago)
Launch vehicle
Unknown
Launch site
Tyuratam Missile And Space Complex (TTMTR)
Object type
Payload
Rocket body
Debris
Shape & HBR
Unknown
Radar Cross Section
Medium (>0.1 m² and <1 m²)

Expand to show TLE details & history
Last TLE update: 2 days ago

TLE from 2 days ago
0 SL-16 DEB
1 22806U 93059E   26171.40065743  .00000043  00000-0  79109-4 0  9997
2 22806  71.0155 158.1848 0200085 358.0814 152.6923 13.73932047641567
Epoch: 2026-06-20T09:36Z
TLE epoch observation values (Epoch: 2026-06-20T09:36:56.801Z)
Latitude
26.58221°
Longitude
-84.52908°
Altitude
1,119.714 km
Speed
7.23 km/s
True Right ascension
21h 53m 17s
True Declination
26° 27' 05"
Sunlit
Object was in daylight at epoch
Visualization orbit readout
Latitude
Unknown
Longitude
Unknown
Altitude
Unknown
Speed
Unknown
Apparent Right ascension
Unknown
Apparent Declination
Unknown
Sunlit
N/A
Visualization observer readout
Local Sidereal Time
00:51:05
Azimuth
Unknown
Elevation
Unknown
Doppler factor
Unknown
Orbital elements
Apogee altitude
1,130.745 km
Perigee altitude
836.156 km
Semi-major axis
7,361.588 km
Eccentricity
0.02001
Inclination
71.0155°
RAAN
158.1848°
Arg. of periapsis
358.0814°
True anomaly
153.72123°
Mean anomaly
152.6923°
Eccentric anomaly
153.20903°
Mean motion
3.43626 °/min
Orbital period
104.77 mins
BSTAR
0.000079109
Loading maneuver chart data...
Computing Atmospheric mass density...
Loading historical data...
Loading historical data...
Loading historical data...
Loading historical data...
Loading historical data...
Loading historical data...
Loading historical data...

Documentation

Showing up to 5 results
|